Tracking 35274 objects as of 10-Sep-2026
HD Live streaming from Space Station
objects crossing your sky now

FLOCK 4S 30


FLOCK 4S 30 is no longer on orbit
FLOCK 4S 30 is classified as:


NORAD ID: 47544
Int'l Code: 2021-006EE
Launch date: January 24, 2021
Source: United States (US)
Launch site: AIR FORCE EASTERN TEST RANGE (AFETR)
Decay date: 2024-09-17
Your satellite tracking list
Your tracking list is empty




NASA's NSSDC Master Catalog

Two Line Element Set (TLE):
1 47544U 21006EE  24261.67148214  .14025352  25020-5  10639-2 0  9998
2 47544  97.3021 329.1828 0013986 213.1036 146.9390 16.39597211204387
Source of the keplerian elements: AFSPC